Siloam Springs, AR

3:39 AM CDT on August 28, 2016 (GMT -0500)
Smith

Weather History for KSLG - January, 2014

Change the Weather History Date:

Wednesday, January 29, 2014

  Actual Average Record
Temperature  
Mean Temperature 24 °F -  
Max Temperature 39 °F 45 °F 73 °F (2011)
Min Temperature 8 °F 27 °F 8 °F (2014)
Degree Days  
Heating Degree Days 42    
Moisture  
Dew Point 5 °F    
Average Humidity 44    
Maximum Humidity 67    
Minimum Humidity 28    
Precipitation  
Precipitation 0.00 in - - ()
Sea Level Pressure  
Sea Level Pressure 30.26 in    
Wind  
Wind Speed 6 mph (SE)    
Max Wind Speed 17 mph    
Max Gust Speed 25 mph    
Visibility 10 miles    
Events      
Averages and records for this station are not official NWS values.
T = Trace of Precipitation, MM = Missing Value Source: NWS Daily Summary

Daily Weather History Graph

Daily Weather History Graph

Search for Another Location

Airport or City:

Trip Planner

Search our weather history database for the weather conditions in past years. The results will help you decide how hot, cold, wet, or windy it might be!

Date:

Astronomy

Jan. 29, 2014 Rise Set
Actual Time 7:21 AM CST 5:41 PM CST
Civil Twilight 6:53 AM CST 6:08 PM CST
Nautical Twilight 6:23 AM CST 6:39 PM CST
Astronomical Twilight 5:52 AM CST 7:09 PM CST
Moon 5:58 AM CST (1/29) 4:41 PM CST (1/29)
Length of Visible Light 11h 14m
Length of Day
10h 20m
Waning Crescent, 2% of the Moon is Illuminated
Jan 29
Waning Crescent
Jan 30
New
Feb 6
First Quarter
Feb 14
Full
Feb 22
Last Quarter

Hourly Weather History & Observations

Time (CST) Temp. Windchill Dew Point Humidity Pressure Visibility Wind Dir Wind Speed Gust Speed Precip Events Conditions
12:15 AM 14.0 °F - -0.4 °F 53% 30.36 in 10.0 mi Calm Calm - N/A   Clear
12:35 AM 15.8 °F - -0.4 °F 49% 30.35 in 10.0 mi Calm Calm - N/A   Clear
12:55 AM 15.8 °F - -0.4 °F 49% 30.35 in 10.0 mi Calm Calm - N/A   Partly Cloudy
1:15 AM 15.8 °F - -0.4 °F 49% 30.34 in 10.0 mi Calm Calm - N/A   Partly Cloudy
1:35 AM 15.8 °F 10.2 °F -0.4 °F 49% 30.34 in 10.0 mi South 3.5 mph - N/A   Clear
1:55 AM 15.8 °F - -0.4 °F 49% 30.34 in 10.0 mi Calm Calm - N/A   Clear
2:15 AM 15.8 °F 10.2 °F 1.4 °F 53% 30.34 in 10.0 mi South 3.5 mph - N/A   Clear
2:35 AM 14.0 °F - -0.4 °F 53% 30.34 in 10.0 mi Calm Calm - N/A   Clear
2:55 AM 14.0 °F - 1.4 °F 57% 30.34 in 10.0 mi Calm Calm - N/A   Clear
3:15 AM 12.2 °F - 1.4 °F 62% 30.34 in 10.0 mi Calm Calm - N/A   Clear
3:35 AM 8.6 °F -1.3 °F -2.2 °F 62% 30.34 in 10.0 mi East 5.8 mph - N/A   Clear
3:55 AM 12.2 °F 4.3 °F 1.4 °F 62% 30.33 in 10.0 mi ESE 4.6 mph - N/A   Clear
4:15 AM 12.2 °F 4.3 °F 1.4 °F 62% 30.33 in 10.0 mi ESE 4.6 mph - N/A   Clear
4:35 AM 10.4 °F - -0.4 °F 62% 30.33 in 10.0 mi Calm Calm - N/A   Clear
4:55 AM 12.2 °F 6.1 °F 1.4 °F 62% 30.32 in 10.0 mi ESE 3.5 mph - N/A   Clear
5:15 AM 12.2 °F 6.1 °F 1.4 °F 62% 30.32 in 10.0 mi ESE 3.5 mph - N/A   Clear
5:35 AM 12.2 °F 6.1 °F 1.4 °F 62% 30.32 in 10.0 mi ESE 3.5 mph - N/A   Clear
5:55 AM 12.2 °F - 1.4 °F 62% 30.32 in 10.0 mi Calm Calm - N/A   Clear
6:15 AM 10.4 °F - 1.4 °F 67% 30.33 in 10.0 mi Calm Calm - N/A   Clear
6:35 AM 12.2 °F 6.1 °F 1.4 °F 62% 30.32 in 10.0 mi SE 3.5 mph - N/A   Clear
6:55 AM 14.0 °F 8.2 °F 1.4 °F 57% 30.32 in 10.0 mi ESE 3.5 mph - N/A   Clear
7:15 AM 12.2 °F 4.3 °F 1.4 °F 62% 30.32 in 10.0 mi East 4.6 mph - N/A   Clear
7:35 AM 10.4 °F 2.2 °F 1.4 °F 67% 30.33 in 10.0 mi East 4.6 mph - N/A   Clear
7:55 AM 10.4 °F - 1.4 °F 67% 30.33 in 10.0 mi Calm Calm - N/A   Clear
8:15 AM 14.0 °F 5.1 °F 3.2 °F 62% 30.33 in 10.0 mi SE 5.8 mph - N/A   Clear
8:35 AM 19.4 °F 10.4 °F 6.8 °F 58% 30.34 in 10.0 mi SE 6.9 mph - N/A   Clear
8:55 AM 19.4 °F 8.6 °F 8.6 °F 63% 30.34 in 10.0 mi SE 9.2 mph - N/A   Clear
9:15 AM 21.2 °F 10.9 °F 8.6 °F 58% 30.34 in 10.0 mi SE 9.2 mph - N/A   Clear
9:35 AM 24.8 °F 14.6 °F 10.4 °F 54% 30.34 in 10.0 mi SSE 10.4 mph - N/A   Clear
9:55 AM 26.6 °F 16.2 °F 8.6 °F 47% 30.35 in 10.0 mi South 11.5 mph - N/A   Clear
10:15 AM 28.4 °F 19.1 °F 6.8 °F 40% 30.35 in 10.0 mi SSE 10.4 mph - N/A   Clear
10:35 AM 30.2 °F 19.8 °F 8.6 °F 40% 30.35 in 10.0 mi SSE 13.8 mph - N/A   Clear
10:55 AM 33.8 °F 24.8 °F 8.6 °F 35% 30.35 in 10.0 mi South 12.7 mph - N/A   Clear
11:15 AM 33.8 °F 24.3 °F 8.6 °F 35% 30.34 in 10.0 mi SSE 13.8 mph 18.4 mph N/A   Clear
11:35 AM 35.6 °F 27.1 °F 8.6 °F 33% 30.34 in 10.0 mi SSE 12.7 mph 20.7 mph N/A   Clear
11:55 AM 35.6 °F 25.9 °F 8.6 °F 33% 30.33 in 10.0 mi South 16.1 mph 23.0 mph N/A   Clear
12:15 PM 37.4 °F 28.2 °F 8.6 °F 30% 30.32 in 10.0 mi South 16.1 mph 20.7 mph N/A   Clear
12:35 PM 37.4 °F 28.5 °F 8.6 °F 30% 30.30 in 10.0 mi South 15.0 mph 19.6 mph N/A   Clear
12:55 PM 37.4 °F 28.2 °F 8.6 °F 30% 30.29 in 10.0 mi SE 16.1 mph 19.6 mph N/A   Clear
1:15 PM 37.4 °F 27.8 °F 8.6 °F 30% 30.28 in 10.0 mi SSE 17.3 mph 20.7 mph N/A   Clear
1:35 PM 37.4 °F 28.2 °F 8.6 °F 30% 30.27 in 10.0 mi SSE 16.1 mph 20.7 mph N/A   Clear
1:55 PM 39.2 °F 30.8 °F 8.6 °F 28% 30.26 in 10.0 mi SSE 15.0 mph - N/A   Clear
2:15 PM 39.2 °F 30.8 °F 8.6 °F 28% 30.25 in 10.0 mi SSE 15.0 mph 21.9 mph N/A   Clear
2:35 PM 39.2 °F 30.8 °F 8.6 °F 28% 30.24 in 10.0 mi South 15.0 mph 25.3 mph N/A   Clear
2:55 PM 39.2 °F 30.8 °F 8.6 °F 28% 30.23 in 10.0 mi SSE 15.0 mph - N/A   Clear
3:15 PM 39.2 °F 31.2 °F 8.6 °F 28% 30.22 in 10.0 mi ESE 13.8 mph 17.3 mph N/A   Clear
3:35 PM 39.2 °F 30.5 °F 8.6 °F 28% 30.22 in 10.0 mi ESE 16.1 mph - N/A   Clear
3:55 PM 39.2 °F 30.2 °F 8.6 °F 28% 30.22 in 10.0 mi ESE 17.3 mph - N/A   Clear
4:15 PM 37.4 °F 29.3 °F 8.6 °F 30% 30.21 in 10.0 mi SE 12.7 mph - N/A   Clear
4:35 PM 37.4 °F 28.2 °F 8.6 °F 30% 30.21 in 10.0 mi SE 16.1 mph - N/A   Clear
4:55 PM 37.4 °F 28.5 °F 6.8 °F 28% 30.20 in 10.0 mi SE 15.0 mph 19.6 mph N/A   Clear
5:15 PM 35.6 °F 26.2 °F 6.8 °F 30% 30.19 in 10.0 mi ESE 15.0 mph 20.7 mph N/A   Clear
5:35 PM 35.6 °F 27.5 °F 6.8 °F 30% 30.18 in 10.0 mi ESE 11.5 mph - N/A   Clear
5:55 PM 33.8 °F 27.0 °F 6.8 °F 32% 30.17 in 10.0 mi ESE 8.1 mph - N/A   Clear
6:15 PM 32.0 °F 25.6 °F 6.8 °F 35% 30.16 in 10.0 mi ESE 6.9 mph - N/A   Clear
6:35 PM 30.2 °F 22.6 °F 6.8 °F 37% 30.15 in 10.0 mi East 8.1 mph - N/A   Clear
6:55 PM 30.2 °F 23.4 °F 6.8 °F 37% 30.15 in 10.0 mi ESE 6.9 mph - N/A   Clear
7:15 PM 30.2 °F 21.9 °F 6.8 °F 37% 30.14 in 10.0 mi ESE 9.2 mph - N/A   Clear
7:35 PM 30.2 °F 22.6 °F 5.0 °F 34% 30.13 in 10.0 mi East 8.1 mph - N/A   Clear
7:55 PM 30.2 °F 21.9 °F 5.0 °F 34% 30.12 in 10.0 mi East 9.2 mph - N/A   Clear
8:15 PM 32.0 °F 23.6 °F 5.0 °F 32% 30.12 in 10.0 mi ESE 10.4 mph - N/A   Clear
8:35 PM 30.2 °F 21.3 °F 5.0 °F 34% 30.11 in 10.0 mi ESE 10.4 mph - N/A   Clear
8:55 PM 30.2 °F 21.3 °F 5.0 °F 34% 30.11 in 10.0 mi SE 10.4 mph - N/A   Clear
9:15 PM 28.4 °F 18.5 °F 5.0 °F 37% 30.11 in 10.0 mi SE 11.5 mph 17.3 mph N/A   Clear
9:35 PM 30.2 °F 19.8 °F 6.8 °F 37% 30.10 in 10.0 mi SE 13.8 mph 19.6 mph N/A   Clear
9:55 PM 30.2 °F 20.2 °F 5.0 °F 34% 30.10 in 10.0 mi SE 12.7 mph - N/A   Clear
10:15 PM 30.2 °F 19.8 °F 6.8 °F 37% 30.09 in 10.0 mi SE 13.8 mph - N/A   Clear
10:35 PM 28.4 °F 17.5 °F 5.0 °F 37% 30.09 in 10.0 mi SE 13.8 mph - N/A   Clear
10:55 PM 30.2 °F 19.8 °F 6.8 °F 37% 30.10 in 10.0 mi SE 13.8 mph - N/A   Clear
11:15 PM 28.4 °F 18.0 °F 6.8 °F 40% 30.10 in 10.0 mi SE 12.7 mph - N/A   Clear
11:35 PM 28.4 °F 17.5 °F 5.0 °F 37% 30.09 in 10.0 mi SE 13.8 mph - N/A   Clear
11:55 PM 28.4 °F 18.0 °F 6.8 °F 40% 30.08 in 10.0 mi SE 12.7 mph - N/A   Clear